W3KCF Weather Reports


time (UTC)temp
F
wind
direction
speed
knots
gust
knots
rain 1hr
in
rain 24hr
in
rain mn
in
humidity
%
barometer
mb
20260506033504 69 182 0.9 1.7 0.00 0.02 0.02 51 1009.3
20260506033023 69 317 0.0 1.7 0.00 0.02 0.02 50 1009.2
20260506032506 69 39 0.0 2.6 0.00 0.02 0.02 51 1009.1
20260506032008 70 208 0.9 2.6 0.00 0.02 0.02 49 1009.2
20260506031533 70 159 0.0 2.6 0.00 0.02 0.02 50 1009.1
20260506031011 70 18 0.0 3.5 0.00 0.02 0.02 49 1009.1
20260506030509 70 161 0.0 3.5 0.00 0.02 0.02 48 1009.0
20260506030025 70 94 0.0 3.5 0.00 0.02 0.02 48 1009.0
20260506025503 70 194 0.0 3.5 0.00 0.02 0.02 47 1009.1
20260506025007 70 339 0.0 3.5 0.00 0.02 0.02 48 1009.2
20260506024537 70 315 0.9 3.5 0.00 0.02 0.02 47 1009.1
20260506024007 71 65 0.0 2.6 0.00 0.02 0.02 47 1009.1
20260506023508 71 219 0.0 3.5 0.00 0.02 0.02 46 1009.2
20260506023020 71 340 0.0 3.5 0.00 0.02 0.02 47 1009.2
20260506022515 71 327 0.9 3.5 0.00 0.02 0.02 46 1009.1
20260506022008 71 251 0.0 2.6 0.00 0.02 0.02 46 1009.1
20260506021516 71 171 0.0 2.6 0.00 0.02 0.02 46 1009.0
20260506021008 71 86 0.0 4.3 0.00 0.02 0.02 46 1009.0
20260506020507 71 105 1.7 4.3 0.00 0.02 0.02 44 1009.0
20260506020016 71 163 0.9 3.5 0.00 0.02 0.02 45 1009.0
20260506015509 72 82 0.0 2.6 0.00 0.02 0.02 45 1009.0
20260506015006 72 143 0.0 3.5 0.00 0.02 0.02 45 1009.0
20260506014530 72 302 0.9 6.1 0.00 0.02 0.02 45 1008.9
20260506014008 72 297 1.7 6.1 0.00 0.02 0.02 44 1008.8
20260506013503 72 72 0.0 1.7 0.00 0.02 0.02 45 1008.8
20260506013027 72 60 0.0 1.7 0.00 0.02 0.02 45 1008.8
20260506012507 72 48 0.0 1.7 0.00 0.02 0.02 44 1008.7
20260506012004 72 55 0.0 2.6 0.00 0.02 0.02 45 1008.7
20260506011530 72 148 0.9 3.5 0.00 0.02 0.02 44 1008.5
20260506011010 72 327 0.9 3.5 0.00 0.02 0.02 43 1008.5
20260506010508 72 352 0.0 1.7 0.00 0.02 0.02 44 1008.5
20260506010024 73 77 0.0 1.7 0.00 0.02 0.02 43 1008.5
20260506005504 73 22 0.0 1.7 0.00 0.02 0.02 44 1008.4
20260506005007 73 34 0.0 1.7 0.00 0.02 0.02 43 1008.3
20260506004523 74 117 0.0 2.6 0.00 0.02 0.02 43 1008.3
20260506004004 74 83 0.0 2.6 0.00 0.02 0.02 42 1008.3
20260506003510 74 220 0.0 4.3 0.00 0.02 0.02 43 1008.3
20260506003024 75 58 0.0 6.1 0.00 0.02 0.02 41 1008.1
20260506002511 75 182 1.7 6.1 0.00 0.02 0.02 40 1008.1
20260506002008 75 171 0.0 5.2 0.00 0.02 0.02 41 1008.1
20260506001519 75 59 1.7 5.2 0.00 0.02 0.02 41 1008.0
20260506001009 75 54 0.0 3.5 0.00 0.02 0.02 42 1008.0
20260506000509 75 146 0.9 3.5 0.00 0.02 0.02 41 1007.9
20260506000019 75 84 0.0 2.6 0.00 0.02 0.02 40 1007.9
20260505235507 76 97 0.9 2.6 0.00 0.02 0.02 41 1007.9
20260505235008 76 89 0.0 3.5 0.00 0.02 0.02 40 1007.8
20260505234526 76 61 0.9 3.5 0.00 0.02 0.02 40 1007.7
20260505234007 76 151 0.0 3.5 0.00 0.02 0.02 39 1007.6
20260505233506 76 122 0.0 6.1 0.00 0.02 0.02 41 1007.7
20260505233027 76 340 0.9 6.1 0.00 0.02 0.02 39 1007.6
20260505232512 76 62 0.0 2.6 0.00 0.02 0.02 41 1007.6
20260505232006 76 76 0.9 6.1 0.00 0.02 0.02 39 1007.6
20260505231528 77 19 0.9 7.0 0.00 0.02 0.02 39 1007.6
20260505231008 77 78 1.7 7.0 0.00 0.02 0.02 38 1007.5
20260505230509 77 51 1.7 5.2 0.00 0.02 0.02 38 1007.5
20260505230027 77 180 0.0 3.5 0.00 0.02 0.02 38 1007.4
20260505225508 77 34 0.0 2.6 0.00 0.02 0.02 39 1007.3
20260505225010 77 202 0.0 3.5 0.00 0.02 0.02 40 1007.1
20260505224523 77 229 0.9 7.0 0.00 0.02 0.02 39 1007.0
20260505224007 77 86 0.9 7.0 0.00 0.02 0.02 38 1007.1
20260505223510 77 74 0.9 4.3 0.00 0.02 0.02 39 1007.1
20260505223030 78 141 0.9 2.6 0.00 0.02 0.02 38 1007.0
20260505222509 78 74 0.0 7.0 0.00 0.02 0.02 39 1007.0
20260505222009 78 171 0.9 7.0 0.00 0.02 0.02 37 1007.0
20260505221525 78 148 1.7 6.1 0.00 0.02 0.02 38 1007.0
20260505221011 78 116 0.9 9.6 0.00 0.02 0.02 37 1007.0
20260505220509 78 67 3.5 9.6 0.00 0.02 0.02 36 1006.9
20260505220020 78 203 1.7 7.0 0.00 0.02 0.02 36 1007.0
20260505215509 78 144 0.9 7.0 0.00 0.02 0.02 37 1006.8
20260505215006 79 90 1.7 6.1 0.00 0.02 0.02 36 1006.8
20260505214523 79 119 1.7 11.3 0.00 0.02 0.02 36 1006.7
20260505214007 79 325 2.6 11.3 0.00 0.02 0.02 36 1006.6
20260505213507 80 74 0.0 7.8 0.00 0.02 0.02 35 1006.8
20260505213029 80 142 1.7 12.2 0.00 0.02 0.02 35 1006.8
20260505212503 80 103 1.7 12.2 0.00 0.02 0.02 37 1006.7
20260505212007 81 339 1.7 7.0 0.00 0.02 0.02 35 1006.7
20260505211512 81 10 0.9 10.4 0.00 0.02 0.02 37 1006.5
20260505211002 81 109 3.5 10.4 0.00 0.02 0.02 34 1006.5
20260505210508 81 30 2.6 9.6 0.00 0.02 0.02 34 1006.7
20260505210008 81 329 1.7 10.4 0.00 0.02 0.02 34 1006.5
20260505205503 82 205 1.7 10.4 0.00 0.02 0.02 37 1006.8
20260505205005 82 100 1.7 7.0 0.00 0.02 0.02 35 1006.5
20260505204506 83 192 0.9 7.8 0.00 0.02 0.02 35 1006.4
20260505204008 83 344 2.6 8.7 0.00 0.02 0.02 34 1006.5
20260505203504 83 360 2.6 8.7 0.00 0.02 0.02 35 1006.6
20260505203006 83 154 2.6 10.4 0.00 0.02 0.02 34 1006.5
20260505202507 83 186 1.7 10.4 0.00 0.02 0.02 34 1006.4
20260505202003 82 284 3.5 11.3 0.00 0.02 0.02 32 1006.6
20260505201511 83 141 4.3 11.3 0.00 0.02 0.02 30 1006.5
20260505201007 84 68 1.7 7.0 0.00 0.02 0.02 29 1006.6
20260505200505 84 331 1.7 7.8 0.00 0.02 0.02 30 1006.6
20260505200027 83 149 2.6 9.6 0.00 0.02 0.02 28 1006.7
20260505195505 83 352 4.3 10.4 0.00 0.02 0.02 29 1006.8
20260505195003 83 159 1.7 10.4 0.00 0.02 0.02 29 1007.0
20260505194520 83 258 1.7 9.6 0.00 0.02 0.02 28 1007.0
20260505194003 84 9 2.6 8.7 0.00 0.02 0.02 29 1007.0
20260505193506 84 132 2.6 6.1 0.00 0.02 0.02 31 1006.9
20260505193018 84 153 0.9 10.4 0.00 0.02 0.02 29 1007.1
20260505192504 83 85 0.9 10.4 0.00 0.02 0.02 31 1007.1
20260505192009 83 171 3.5 8.7 0.00 0.02 0.02 29 1007.1
20260505191519 83 127 2.6 8.7 0.00 0.02 0.02 30 1007.2
20260505191003 83 182 3.5 12.2 0.00 0.02 0.02 29 1007.5
20260505190507 83 155 3.5 12.2 0.00 0.02 0.02 29 1007.5
20260505190019 83 105 1.7 9.6 0.00 0.02 0.02 27 1007.6
20260505185507 83 10 3.5 13.0 0.00 0.02 0.02 29 1007.6
20260505185010 83 175 4.3 13.0 0.00 0.02 0.02 29 1007.5
20260505184512 83 86 2.6 8.7 0.00 0.02 0.02 30 1007.6
20260505184007 83 127 1.7 6.1 0.00 0.02 0.02 35 1007.7
20260505183507 83 104 1.7 10.4 0.00 0.02 0.02 34 1007.6
20260505183010 82 324 5.2 10.4 0.00 0.02 0.02 31 1007.7
20260505182507 82 304 2.6 17.4 0.00 0.02 0.02 31 1007.8
20260505182006 81 262 3.5 17.4 0.00 0.02 0.02 30 1007.8
20260505181506 82 186 3.5 20.0 0.00 0.02 0.02 30 1007.9
20260505181004 82 270 1.7 20.0 0.00 0.02 0.02 35 1008.0
20260505180502 82 159 3.5 13.0 0.00 0.02 0.02 37 1008.3
20260505180025 82 270 2.6 10.4 0.00 0.02 0.02 37 1008.4
20260505175509 82 124 2.6 10.4 0.00 0.02 0.02 38 1008.3
20260505175005 81 109 1.7 6.1 0.00 0.02 0.02 38 1008.5
20260505174524 82 132 1.7 12.2 0.00 0.02 0.02 37 1008.4
20260505174004 82 169 1.7 12.2 0.00 0.02 0.02 36 1008.5
20260505173504 81 148 2.6 9.6 0.00 0.02 0.02 36 1008.6
20260505173022 81 215 1.7 7.8 0.00 0.02 0.02 41 1008.5
20260505172505 80 152 1.7 10.4 0.00 0.02 0.02 39 1008.6
20260505172008 80 166 1.7 10.4 0.00 0.02 0.02 37 1008.6
20260505171520 81 215 3.5 9.6 0.00 0.02 0.02 40 1008.7
20260505171002 81 14 2.6 9.6 0.00 0.02 0.02 37 1008.7
20260505170507 81 171 0.9 8.7 0.00 0.02 0.02 46 1008.7
20260505170020 80 144 2.6 8.7 0.00 0.02 0.02 41 1008.8
20260505165502 80 92 1.7 7.8 0.00 0.02 0.02 43 1008.8
20260505165006 79 181 2.6 11.3 0.00 0.02 0.02 42 1008.9
20260505164516 79 9 2.6 11.3 0.00 0.02 0.02 46 1008.9
20260505164011 79 171 0.9 7.0 0.00 0.02 0.02 46 1008.9
20260505163510 79 185 1.7 7.0 0.00 0.02 0.02 41 1009.0
20260505163016 79 310 2.6 7.0 0.00 0.02 0.02 40 1009.1
20260505162507 79 175 1.7 7.0 0.00 0.02 0.02 40 1009.3
20260505162008 79 173 2.6 6.1 0.00 0.02 0.02 42 1009.2
20260505161508 79 206 1.7 5.2 0.00 0.02 0.02 43 1009.2
20260505161007 78 128 0.9 6.1 0.00 0.02 0.02 42 1009.2
20260505160509 78 323 0.9 6.1 0.00 0.02 0.02 46 1009.3
20260505153025 76 141 2.6 10.4 0.00 0.02 0.02 46 1009.6
20260505152506 76 175 3.5 6.1 0.00 0.02 0.02 48 1009.6
20260505152013 75 134 0.9 7.8 0.00 0.02 0.02 49 1009.7
20260505151526 75 332 1.7 7.8 0.00 0.02 0.02 49 1009.9
20260505151006 75 153 3.5 7.0 0.00 0.02 0.02 49 1009.8
20260505150507 75 123 0.9 5.2 0.00 0.02 0.02 50 1009.9
20260505140509 69 66 2.6 7.0 0.00 0.02 0.02 57 1010.6
20260505125009 58 91 0.0 1.7 0.00 0.02 0.02 83 1010.6
20260505124529 57 232 0.0 1.7 0.00 0.02 0.02 86 1010.6
20260505124002 56 326 0.0 1.7 0.00 0.02 0.02 90 1010.5
20260505123510 56 9 0.0 2.6 0.00 0.02 0.02 92 1010.6
20260505123028 55 322 0.9 2.6 0.00 0.02 0.02 94 1010.4
20260505122513 55 59 0.0 1.7 0.00 0.02 0.02 94 1010.5
20260505122011 55 63 0.0 1.7 0.00 0.02 0.02 94 1010.6
20260505121521 54 64 0.0 1.7 0.00 0.02 0.02 94 1010.7
20260505121009 54 118 0.0 1.7 0.00 0.02 0.02 94 1010.8
20260505120508 53 64 0.0 1.7 0.00 0.02 0.02 94 1010.7
20260505120029 53 49 0.0 1.7 0.00 0.02 0.02 94 1010.7
20260505115508 53 49 0.0 1.7 0.00 0.02 0.02 94 1010.5
20260505115007 52 37 0.0 1.7 0.00 0.02 0.02 94 1010.4
20260505114527 52 17 0.0 0.9 0.00 0.02 0.02 94 1010.3
20260505114008 51 252 0.0 0.0 0.00 0.02 0.02 93 1010.2
20260505113506 51 252 0.0 0.0 0.00 0.02 0.02 93 1010.4
20260505113028 51 252 0.0 0.0 0.00 0.02 0.02 93 1010.4
20260505112503 51 252 0.0 0.9 0.00 0.02 0.02 93 1010.4
20260505112006 50 252 0.0 0.9 0.00 0.02 0.02 92 1010.3
20260505111513 50 243 0.0 0.0 0.00 0.02 0.02 92 1010.2
20260505111003 50 319 0.0 0.0 0.00 0.02 0.02 92 1010.2
20260505110504 50 319 0.0 0.0 0.00 0.02 0.02 91 1010.1
20260505102003 51 304 0.0 0.0 0.01 0.02 0.02 92 1010.0
20260505101538 51 304 0.0 0.0 0.01 0.02 0.02 92 1009.7
20260505101007 50 304 0.0 0.0 0.01 0.02 0.02 92 1009.6
20260505100503 50 304 0.0 0.0 0.01 0.02 0.02 92 1009.5
20260505100020 50 304 0.0 0.0 0.02 0.02 0.02 92 1009.5
20260505095504 50 304 0.0 0.0 0.02 0.02 0.02 92 1009.4
20260505095003 50 304 0.0 0.9 0.02 0.02 0.02 92 1009.4
20260505094521 50 304 0.0 0.9 0.02 0.02 0.02 92 1009.4
20260505094003 50 312 0.0 0.0 0.02 0.02 0.02 92 1009.3
20260505093505 50 312 0.0 2.6 0.01 0.01 0.01 92 1009.4
20260505093016 49 310 0.9 2.6 0.01 0.01 0.01 91 1009.6
20260505092506 49 317 0.9 1.7 0.01 0.01 0.01 91 1009.4
20260505092008 49 34 0.0 1.7 0.01 0.01 0.01 90 1009.8
20260505091511 49 352 0.0 1.7 0.01 0.01 0.01 89 1010.3
20260505091004 49 59 0.0 0.9 0.01 0.01 0.01 88 1010.2
20260505090505 48 275 0.0 1.7 0.01 0.01 0.01 88 1010.3
20260505090017 48 13 0.0 1.7 0.00 0.00 0.00 87 1010.3
20260505085506 48 309 0.0 1.7 0.00 0.00 0.00 86 1010.3
20260505085006 48 309 0.0 1.7 0.00 0.00 0.00 85 1010.3
20260505084511 48 308 0.0 1.7 0.00 0.00 0.00 84 1010.0
20260505084005 48 308 0.0 0.0 0.00 0.00 0.00 83 1009.8
20260505083503 48 308 0.0 0.0 0.00 0.00 0.00 84 1009.8
20260505083024 48 308 0.0 0.0 0.00 0.00 0.00 83 1009.7
20260505082505 48 308 0.0 0.0 0.00 0.00 0.00 83 1009.5
20260505082002 48 308 0.0 0.0 0.00 0.00 0.00 83 1009.5
20260505081525 48 308 0.0 0.0 0.00 0.00 0.00 83 1009.5
20260505081007 48 308 0.0 0.0 0.00 0.00 0.00 83 1009.5
20260505080504 48 308 0.0 0.0 0.00 0.00 0.00 83 1009.5
20260505080024 49 308 0.0 0.0 0.00 0.00 0.00 83 1009.4
20260505075506 49 308 0.0 0.0 0.00 0.00 0.00 83 1009.4
20260505075012 49 308 0.0 0.0 0.00 0.00 0.00 83 1009.3
20260505074527 49 308 0.0 0.0 0.00 0.00 0.00 84 1009.3
20260505074003 49 308 0.0 0.0 0.00 0.00 0.00 84 1009.4
20260505073511 48 308 0.0 0.0 0.00 0.00 0.00 83 1009.4
20260505073017 48 308 0.0 0.0 0.00 0.00 0.00 83 1009.4
20260505072502 48 308 0.0 0.0 0.00 0.00 0.00 83 1009.4
20260505072007 48 308 0.0 0.0 0.00 0.00 0.00 83 1009.4
20260505071528 48 308 0.0 0.0 0.00 0.00 0.00 83 1009.4
20260505071007 48 308 0.0 0.0 0.00 0.00 0.00 83 1009.4
20260505070509 48 312 0.0 0.0 0.00 0.00 0.00 83 1009.5
20260505070012 48 312 0.0 0.0 0.00 0.00 0.00 83 1009.4
20260505065508 48 312 0.0 1.7 0.00 0.00 0.00 82 1009.4
20260505065007 48 312 0.0 0.9 0.00 0.00 0.00 82 1009.4
20260505064509 48 292 0.0 0.9 0.00 0.00 0.00 82 1009.4
20260505064007 48 279 0.0 0.9 0.00 0.00 0.00 82 1009.4
20260505063505 48 275 0.0 1.7 0.00 0.00 0.00 82 1009.5
20260505063028 48 275 0.0 1.7 0.00 0.00 0.00 82 1009.5
20260505062507 48 267 0.0 1.7 0.00 0.00 0.00 81 1009.5
20260505062005 48 267 0.0 0.9 0.00 0.00 0.00 81 1009.5
20260505061526 48 275 0.0 0.0 0.00 0.00 0.00 81 1009.5
20260505061007 48 275 0.0 0.0 0.00 0.00 0.00 81 1009.6
20260505060504 49 275 0.0 0.0 0.00 0.00 0.00 81 1009.6
20260505060037 49 275 0.0 0.9 0.00 0.00 0.00 81 1009.6
20260505055506 49 275 0.0 0.9 0.00 0.00 0.00 81 1009.6
20260505055012 49 275 0.0 0.0 0.00 0.00 0.00 81 1009.6
20260505054524 49 275 0.0 0.0 0.00 0.00 0.00 81 1009.7
20260505054006 49 275 0.0 0.0 0.00 0.00 0.00 81 1009.7
20260505053511 49 275 0.0 0.0 0.00 0.00 0.00 80 1009.8
20260505053024 49 275 0.0 0.0 0.00 0.00 0.00 80 1009.7
20260505052504 49 275 0.0 0.0 0.00 0.00 0.00 79 1009.7
20260505052008 49 275 0.0 0.0 0.00 0.00 0.00 79 1009.6
20260505051525 49 275 0.0 0.9 0.00 0.00 0.00 78 1009.5
20260505051010 49 275 0.0 1.7 0.00 0.00 0.00 78 1009.6
20260505050507 49 275 0.0 1.7 0.00 0.00 0.00 78 1009.6
20260505041528 51 271 0.0 0.0 0.00 0.00 0.00 75 1009.4
20260505041006 51 271 0.0 0.0 0.00 0.00 0.00 75 1009.5
20260505040503 52 271 0.0 0.9 0.00 0.00 0.00 73 1009.5
20260505040025 52 271 0.0 0.9 0.00 0.00 0.00 72 1009.4
20260505035507 52 271 0.0 0.0 0.00 0.00 0.00 70 1009.3
20260505035011 52 271 0.0 0.0 0.00 0.00 0.00 71 1009.3
20260505034526 53 271 0.0 1.7 0.00 0.00 0.00 70 1009.3
20260505034004 53 271 0.0 1.7 0.00 0.00 0.00 70 1009.4